This demonstration page uses our WeatherBlox Daily Observations layout. Learn more.

Left ArrowRight Arrow

39.12711, -84.51439

Hourly Observations for September 9, 2016

Temp ( °F °C ) Dew Point ( °F °C ) Humidity (%) Winds ( mph kmh ) Pressure ( in mb ) Visibility ( mi km ) Precip ( " mm )
12:02 am 00:02 Cloudy with Rain 73 23 N/A N/A NE 5 7 29.97 1015 5 8 0.00 0.00
12:47 am 00:47 Cloudy with Heavy Rain 72 22 N/A N/A Calm 29.97 1015 2 3 0.12 3.05
12:53 am 00:53 Cloudy with Light Rain 72 22 N/A N/A Calm 29.96 1015 3 5 0.12 3.05
1:53 am 01:53 Mostly Cloudy 72 22 N/A N/A SE 3 6 29.95 1014 10 16 0.00 0.03
2:53 am 02:53 Cloudy with Light Rain 72 22 N/A N/A S 6 9 29.96 1015 9 14 0.01 0.25
3:53 am 03:53 Cloudy 72 22 N/A N/A Calm 29.95 1014 10 16 0.01 0.25
4:53 am 04:53 Mostly Cloudy 72 22 N/A N/A Calm 29.96 1014 10 16 0.02 0.51
5:53 am 05:53 Cloudy 72 22 N/A N/A Calm 29.96 1015 9 14 0.00 0.00
6:53 am 06:53 Cloudy 72 22.2 72 22.2 100 100 Calm 29.97 1015 9 14 0.00 0.00
7:53 am 07:53 Cloudy 73 22.8 73 22.8 100 100 ENE 5 7 29.97 1015 9 14 0.00 0.00
8:53 am 08:53 Cloudy 73 22.8 73 22.8 100 100 NE 6 9 29.99 1016 9 14 0.00 0.00
9:25 am 09:25 Cloudy with Rain 73 22.8 73 22.8 100 100 NE 5 7 29.97 1015 2 3 0.01 0.25
9:35 am 09:35 Cloudy with Light Rain 73 22.8 73 22.8 100 100 NE 5 7 29.97 1015 3 4 0.02 0.51
9:45 am 09:45 Cloudy with Light Rain 73 22.8 73 22.8 100 100 NE 5 7 29.97 1015 2 3 0.03 0.76
9:53 am 09:53 Cloudy with Light Rain 73 22.8 73 22.8 100 100 NNE 5 7 30.01 1016 2 3 0.04 1.02
10:40 am 10:40 Cloudy with Mist and Fog 73 23 73 23 100 100 E 3 6 30.00 1016 2 3 0.00 0.00
10:50 am 10:50 Cloudy with Mist and Fog 75 24 73 23 94 94 Calm 30.00 1016 4 6 0.00 0.00
10:53 am 10:53 Cloudy with Mist and Fog 75 23.9 73 22.8 94 94 Calm 30.01 1016 4 6 0.00 0.03
11:04 am 11:04 Cloudy 75 24 73 23 94 94 NNE 3 6 30.00 1016 10 16 0.00 0.00
11:34 am 11:34 Cloudy with Mist and Fog 77 25 73 23 89 89 NE 3 6 30.00 1016 6 10 0.00 0.00
11:53 am 11:53 Mostly Cloudy with Light Rain 77 25 73 22.8 88 88 Calm 30.00 1016 10 16 0.00 0.03
12:05 pm 12:05 Partly Cloudy with Light Rain 78 25.6 74 23.3 87 87 VRB 3 6 29.97 1015 10 16 0.00 0.03
12:35 pm 12:35 Mostly Cloudy with Light Rain 78 25.6 73 22.8 85 85 WSW 3 6 29.97 1015 7 11 0.00 0.03
12:53 pm 12:53 Mostly Cloudy 80 26.7 75 23.9 85 85 SSW 6 9 29.99 1016 10 16 0.00 0.03
1:13 pm 13:13 Partly Cloudy 81 27.2 74 23.3 79 79 VRB 6 9 29.97 1015 10 16 0.00 0.00
1:53 pm 13:53 Mostly Cloudy 81 27.2 74 23.3 79 79 S 3 6 29.98 1015 10 16 0.00 0.00
2:53 pm 14:53 Partly Cloudy 83 28.3 73 22.8 72 72 VRB 3 6 29.96 1014 10 16 0.00 0.03
3:53 pm 15:53 Partly Cloudy 85 29.4 72 22.2 65 65 Calm 29.94 1014 10 16 0.00 0.00
4:53 pm 16:53 Partly Cloudy 84 28.9 72 22.2 67 67 Calm 29.93 1014 10 16 0.00 0.00
5:53 pm 17:53 Mostly Cloudy 83 28.3 74 23.3 74 74 SSW 7 11 29.94 1014 10 16 0.00 0.00
6:53 pm 18:53 Partly Cloudy 81 27.2 74 23.3 79 79 S 8 13 29.94 1014 10 16 0.00 0.00
7:53 pm 19:53 Mostly Cloudy 79 26.1 73 22.8 82 82 S 5 7 29.95 1014 10 16 0.00 0.00
8:53 pm 20:53 Clear 76 24.4 74 23.3 94 94 Calm 29.97 1015 10 16 0.00 0.00
9:53 pm 21:53 Clear 75 23.9 74 23.3 96 96 Calm 29.97 1015 10 16 0.00 0.00
10:53 pm 22:53 Cloudy 74 23.3 74 23.3 100 100 Calm 29.96 1015 9 14 0.00 0.00
11:53 pm 23:53 Mostly Clear 75 23.9 73 22.8 94 94 SSW 7 11 29.94 1014 10 16 0.00 0.00

Powered by AerisWeather